N8767 LEZL-LEAS

Flight info

Callsign N8767
Flight time 1h 2m
Altitude 34000
Route HIJ DCT PARKA DCT MELON DCT ZMR DCT VETAN DCT OMESI M30 XONDA
Aircraft B737/M-SDE2E3FGHIRWXY/LB1

Departure

Time 2026-04-29 22:54
Airport Seville Airport (LEZL)

Arrival

Time 2026-04-29 23:56
Airport Asturias Airport (LEAS)
Time Latitude Longitude Altitude Speed Heading
2026-04-29 22:13 37.42270 -5.89614 93 ft 0 kts 82°
2026-04-29 22:46 37.42271 -5.89604 93 ft 2 kts 82°
2026-04-29 22:46 37.42273 -5.89579 93 ft 4 kts 82°
2026-04-29 22:46 37.42271 -5.89532 94 ft 6 kts 118°
2026-04-29 22:47 37.42234 -5.89484 94 ft 9 kts 135°
2026-04-29 22:47 37.42190 -5.89428 96 ft 9 kts 139°
2026-04-29 22:47 37.42167 -5.89428 98 ft 5 kts 212°
2026-04-29 22:47 37.42126 -5.89477 97 ft 10 kts 224°
2026-04-29 22:48 37.42067 -5.89480 97 ft 9 kts 141°
2026-04-29 22:48 37.42026 -5.89413 98 ft 10 kts 135°
2026-04-29 22:48 37.41984 -5.89340 97 ft 10 kts 98°
2026-04-29 22:48 37.41982 -5.89251 99 ft 11 kts 91°
2026-04-29 22:49 37.41983 -5.89139 99 ft 16 kts 89°
2026-04-29 22:49 37.41984 -5.88976 100 ft 21 kts 93°
2026-04-29 22:49 37.41984 -5.88788 102 ft 22 kts 89°
2026-04-29 22:49 37.41985 -5.88590 103 ft 24 kts 89°
2026-04-29 22:50 37.41985 -5.88375 104 ft 24 kts 90°
2026-04-29 22:50 37.41986 -5.88172 105 ft 23 kts 90°
2026-04-29 22:50 37.41987 -5.87970 106 ft 24 kts 90°
2026-04-29 22:50 37.41987 -5.87749 107 ft 26 kts 90°
2026-04-29 22:51 37.41988 -5.87532 109 ft 24 kts 89°
2026-04-29 22:51 37.41985 -5.87359 113 ft 7 kts 114°
2026-04-29 22:51 37.41971 -5.87331 113 ft 0 kts 127°
2026-04-29 22:52 37.41970 -5.87330 110 ft 1 kts 128°
2026-04-29 22:52 37.41948 -5.87311 112 ft 7 kts 159°
2026-04-29 22:52 37.41897 -5.87309 113 ft 8 kts 199°
2026-04-29 22:52 37.41855 -5.87365 115 ft 9 kts 228°
2026-04-29 22:53 37.41815 -5.87443 115 ft 12 kts 216°
2026-04-29 22:53 37.41801 -5.87529 112 ft 9 kts 269°
2026-04-29 22:53 37.41801 -5.87539 114 ft 2 kts 270°
2026-04-29 22:53 37.41800 -5.87682 112 ft 50 kts 269°
2026-04-29 22:54 37.41796 -5.88482 106 ft 129 kts 269°
2026-04-29 22:54 37.41789 -5.89832 392 ft 164 kts 269°
2026-04-29 22:54 37.41834 -5.91248 1388 ft 157 kts 277°
2026-04-29 22:54 37.42212 -5.92627 1787 ft 191 kts 305°
2026-04-29 22:55 37.43249 -5.93877 2062 ft 222 kts 317°
2026-04-29 22:55 37.44440 -5.95269 2417 ft 247 kts 316°
2026-04-29 22:55 37.45751 -5.96774 3040 ft 260 kts 316°
2026-04-29 22:55 37.47095 -5.98307 4082 ft 261 kts 316°
2026-04-29 22:56 37.48446 -5.99875 5022 ft 268 kts 314°
2026-04-29 22:56 37.49823 -6.01502 5924 ft 275 kts 313°
2026-04-29 22:56 37.51224 -6.03177 6923 ft 280 kts 312°
2026-04-29 22:56 37.52644 -6.04887 7915 ft 285 kts 312°
2026-04-29 22:57 37.54092 -6.06639 8888 ft 292 kts 312°
2026-04-29 22:57 37.55569 -6.08428 9904 ft 296 kts 312°
2026-04-29 22:57 37.57147 -6.10153 10785 ft 312 kts 325°
2026-04-29 22:57 37.59271 -6.11015 11537 ft 334 kts 354°
2026-04-29 22:58 37.61594 -6.10501 12424 ft 348 kts 23°
2026-04-29 22:58 37.63609 -6.08762 13408 ft 355 kts 39°
2026-04-29 22:58 37.64844 -6.07403 14031 ft 358 kts 41°
2026-04-29 22:58 37.67320 -6.04509 15202 ft 370 kts 42°
2026-04-29 22:59 37.69220 -6.02272 16100 ft 376 kts 41°
2026-04-29 22:59 37.71163 -6.00013 16998 ft 383 kts 41°
2026-04-29 22:59 37.73152 -5.97733 17863 ft 389 kts 40°
2026-04-29 22:59 37.75182 -5.95434 18744 ft 394 kts 40°
2026-04-29 23:00 37.77245 -5.93115 19586 ft 400 kts 40°
2026-04-29 23:00 37.79337 -5.90774 20414 ft 405 kts 39°
2026-04-29 23:00 37.81468 -5.88394 21233 ft 411 kts 39°
2026-04-29 23:00 37.83606 -5.86008 21990 ft 417 kts 39°
2026-04-29 23:01 37.85824 -5.83530 22738 ft 423 kts 39°
2026-04-29 23:01 37.88013 -5.81084 23492 ft 428 kts 39°
2026-04-29 23:01 37.90281 -5.78547 24245 ft 432 kts 39°
2026-04-29 23:01 37.92547 -5.76011 24972 ft 436 kts 39°
2026-04-29 23:02 37.94796 -5.73490 25649 ft 440 kts 39°
2026-04-29 23:02 37.97110 -5.70894 26276 ft 445 kts 39°
2026-04-29 23:02 37.99434 -5.68284 26946 ft 448 kts 39°
2026-04-29 23:02 38.01762 -5.65665 27816 ft 445 kts 38°
2026-04-29 23:03 38.04070 -5.63066 28700 ft 441 kts 38°
2026-04-29 23:03 38.06360 -5.60487 29450 ft 440 kts 38°
2026-04-29 23:03 38.08652 -5.57904 30096 ft 441 kts 38°
2026-04-29 23:03 38.10945 -5.55319 30760 ft 440 kts 38°
2026-04-29 23:04 38.13226 -5.52743 31481 ft 437 kts 38°
2026-04-29 23:04 38.15494 -5.50179 32188 ft 434 kts 38°
2026-04-29 23:04 38.17741 -5.47639 32780 ft 433 kts 38°
2026-04-29 23:04 38.19990 -5.45093 33340 ft 432 kts 38°
2026-04-29 23:05 38.22226 -5.42561 33922 ft 430 kts 38°
2026-04-29 23:05 38.24475 -5.40013 34008 ft 436 kts 38°
2026-04-29 23:05 38.28225 -5.35758 34016 ft 431 kts 38°
2026-04-29 23:06 38.32725 -5.30646 34054 ft 443 kts 38°
2026-04-29 23:06 38.35059 -5.27995 34046 ft 455 kts 38°
2026-04-29 23:06 38.37448 -5.25275 34047 ft 467 kts 38°
2026-04-29 23:07 38.42395 -5.19624 34050 ft 487 kts 38°
2026-04-29 23:07 38.47550 -5.13779 34029 ft 503 kts 34°
2026-04-29 23:08 38.50562 -5.11583 34036 ft 497 kts 15°
2026-04-29 23:08 38.53816 -5.10472 34018 ft 486 kts
2026-04-29 23:08 38.57138 -5.10401 34048 ft 473 kts 349°
2026-04-29 23:08 38.60412 -5.10740 34018 ft 472 kts 348°
2026-04-29 23:09 38.66939 -5.11551 34015 ft 471 kts 348°
2026-04-29 23:09 38.73465 -5.12292 34013 ft 471 kts 348°
2026-04-29 23:10 38.80010 -5.12966 34011 ft 472 kts 349°
2026-04-29 23:10 38.86564 -5.13627 34017 ft 472 kts 349°
2026-04-29 23:11 38.93107 -5.14293 34024 ft 472 kts 349°
2026-04-29 23:11 38.99669 -5.14970 34014 ft 472 kts 348°
2026-04-29 23:12 39.06080 -5.16166 34024 ft 467 kts 343°
2026-04-29 23:12 39.12486 -5.17650 34020 ft 467 kts 343°
2026-04-29 23:13 39.18907 -5.19122 34014 ft 469 kts 343°
2026-04-29 23:13 39.25343 -5.20548 34013 ft 470 kts 343°
2026-04-29 23:14 39.31791 -5.21963 34006 ft 470 kts 343°
2026-04-29 23:14 39.38241 -5.23379 34016 ft 470 kts 343°
2026-04-29 23:15 39.44692 -5.24801 34005 ft 470 kts 343°
2026-04-29 23:15 39.51142 -5.26225 34011 ft 471 kts 343°
2026-04-29 23:16 39.57562 -5.27646 34012 ft 470 kts 343°
2026-04-29 23:16 39.64056 -5.29088 34006 ft 470 kts 343°
2026-04-29 23:17 39.70464 -5.30513 34010 ft 470 kts 343°
2026-04-29 23:17 39.76914 -5.31946 34010 ft 471 kts 344°
2026-04-29 23:18 39.83413 -5.33197 34001 ft 473 kts 346°
2026-04-29 23:18 39.85037 -5.33476 34004 ft 0 kts 346°
2026-04-29 23:18 39.85201 -5.33528 34014 ft 469 kts 338°
2026-04-29 23:19 39.91674 -5.34992 34010 ft 475 kts 347°
2026-04-29 23:19 39.98260 -5.35926 34004 ft 476 kts 347°
2026-04-29 23:20 40.04842 -5.36936 33992 ft 475 kts 347°
2026-04-29 23:20 40.11397 -5.38065 34000 ft 475 kts 346°
2026-04-29 23:21 40.17919 -5.39239 34002 ft 475 kts 346°
2026-04-29 23:21 40.24480 -5.40425 34005 ft 475 kts 346°
2026-04-29 23:22 40.31030 -5.41608 33996 ft 475 kts 346°
2026-04-29 23:22 40.37578 -5.42791 33995 ft 476 kts 346°
2026-04-29 23:23 40.44147 -5.43978 33997 ft 476 kts 346°
2026-04-29 23:23 40.50716 -5.45168 34001 ft 477 kts 346°
2026-04-29 23:24 40.57255 -5.46355 33991 ft 478 kts 346°
2026-04-29 23:24 40.63846 -5.47552 33993 ft 478 kts 347°
2026-04-29 23:25 40.70444 -5.48753 33990 ft 479 kts 347°
2026-04-29 23:25 40.77047 -5.49959 33991 ft 479 kts 347°
2026-04-29 23:26 40.83662 -5.51169 33995 ft 480 kts 347°
2026-04-29 23:26 40.90287 -5.52384 33988 ft 481 kts 347°
2026-04-29 23:27 40.96917 -5.53601 33990 ft 481 kts 347°
2026-04-29 23:27 41.03556 -5.54822 33990 ft 482 kts 348°
2026-04-29 23:28 41.10191 -5.56045 33990 ft 482 kts 348°
2026-04-29 23:28 41.16842 -5.57275 33993 ft 482 kts 348°
2026-04-29 23:29 41.23499 -5.58508 33991 ft 483 kts 348°
2026-04-29 23:29 41.30166 -5.59744 33992 ft 484 kts 349°
2026-04-29 23:30 41.36839 -5.60982 33992 ft 485 kts 349°
2026-04-29 23:30 41.43480 -5.62221 33988 ft 485 kts 349°
2026-04-29 23:31 41.50172 -5.63471 33990 ft 486 kts 349°
2026-04-29 23:31 41.56871 -5.64700 33992 ft 486 kts 349°
2026-04-29 23:32 41.63589 -5.65868 33991 ft 486 kts 350°
2026-04-29 23:32 41.70301 -5.67031 33988 ft 487 kts 350°
2026-04-29 23:33 41.77019 -5.68211 33989 ft 487 kts 350°
2026-04-29 23:33 41.83738 -5.69396 33978 ft 487 kts 350°
2026-04-29 23:34 41.90455 -5.70582 33977 ft 487 kts 350°
2026-04-29 23:34 41.97124 -5.71762 33970 ft 486 kts 350°
2026-04-29 23:35 42.03834 -5.72954 33970 ft 486 kts 351°
2026-04-29 23:35 42.10538 -5.74149 33976 ft 486 kts 350°
2026-04-29 23:36 42.17251 -5.75348 33970 ft 486 kts 351°
2026-04-29 23:36 42.23964 -5.76548 33972 ft 486 kts 351°
2026-04-29 23:37 42.30668 -5.77749 33967 ft 486 kts 351°
2026-04-29 23:37 42.37377 -5.78951 33960 ft 486 kts 351°
2026-04-29 23:38 42.44094 -5.80158 33413 ft 493 kts 351°
2026-04-29 23:38 42.47512 -5.80774 32627 ft 492 kts 351°
2026-04-29 23:38 42.50884 -5.81381 31957 ft 486 kts 351°
2026-04-29 23:39 42.54219 -5.81982 31256 ft 481 kts 352°
2026-04-29 23:39 42.57479 -5.82569 30570 ft 476 kts 352°
2026-04-29 23:39 42.60750 -5.83160 29881 ft 471 kts 352°
2026-04-29 23:39 42.63984 -5.83746 29183 ft 466 kts 352°
2026-04-29 23:40 42.67182 -5.84326 28472 ft 461 kts 352°
2026-04-29 23:40 42.70346 -5.84900 27764 ft 457 kts 352°
2026-04-29 23:40 42.73487 -5.85470 27055 ft 453 kts 353°
2026-04-29 23:40 42.76601 -5.86046 26319 ft 450 kts 352°
2026-04-29 23:41 42.79689 -5.86635 25602 ft 446 kts 352°
2026-04-29 23:41 42.82756 -5.87223 24889 ft 443 kts 353°
2026-04-29 23:41 42.85796 -5.87804 24178 ft 439 kts 353°
2026-04-29 23:41 42.88812 -5.88349 23408 ft 437 kts 354°
2026-04-29 23:42 42.91821 -5.88844 22680 ft 434 kts 354°
2026-04-29 23:42 42.94801 -5.89321 21981 ft 429 kts 354°
2026-04-29 23:42 42.97761 -5.89800 21256 ft 426 kts 353°
2026-04-29 23:42 43.00691 -5.90282 20567 ft 422 kts 353°
2026-04-29 23:43 43.03559 -5.90760 19881 ft 419 kts 352°
2026-04-29 23:43 43.06395 -5.91749 19124 ft 415 kts 334°
2026-04-29 23:43 43.08776 -5.93784 18506 ft 406 kts 320°
2026-04-29 23:43 43.10955 -5.96194 17852 ft 400 kts 318°
2026-04-29 23:44 43.13086 -5.98621 17181 ft 397 kts 317°
2026-04-29 23:44 43.15209 -6.01018 16491 ft 394 kts 319°
2026-04-29 23:44 43.17331 -6.03372 15803 ft 391 kts 319°
2026-04-29 23:44 43.19439 -6.05689 15111 ft 385 kts 319°
2026-04-29 23:45 43.21517 -6.07965 14490 ft 380 kts 319°
2026-04-29 23:45 43.23573 -6.10218 13815 ft 376 kts 319°
2026-04-29 23:45 43.25604 -6.12450 13157 ft 373 kts 319°
2026-04-29 23:45 43.27617 -6.14667 12501 ft 369 kts 319°
2026-04-29 23:46 43.29611 -6.16865 11845 ft 366 kts 319°
2026-04-29 23:46 43.31590 -6.19044 11182 ft 363 kts 319°
2026-04-29 23:46 43.33552 -6.21206 10517 ft 360 kts 319°
2026-04-29 23:46 43.35475 -6.23328 10215 ft 346 kts 319°
2026-04-29 23:47 43.37308 -6.25349 10053 ft 330 kts 319°
2026-04-29 23:47 43.39057 -6.27280 9898 ft 316 kts 319°
2026-04-29 23:47 43.40721 -6.29118 9884 ft 298 kts 319°
2026-04-29 23:47 43.42277 -6.30840 9750 ft 286 kts 319°
2026-04-29 23:48 43.43815 -6.32545 9349 ft 280 kts 319°
2026-04-29 23:48 43.45330 -6.34226 8756 ft 281 kts 319°
2026-04-29 23:48 43.46848 -6.35911 8187 ft 279 kts 319°
2026-04-29 23:48 43.48349 -6.37577 7643 ft 276 kts 319°
2026-04-29 23:49 43.49845 -6.39234 7122 ft 273 kts 321°
2026-04-29 23:49 43.51525 -6.40348 6688 ft 268 kts 349°
2026-04-29 23:49 43.53345 -6.40337 6363 ft 260 kts 11°
2026-04-29 23:49 43.55054 -6.39668 6081 ft 252 kts 18°
2026-04-29 23:50 43.56724 -6.38895 5740 ft 256 kts 18°
2026-04-29 23:50 43.58461 -6.38096 5389 ft 269 kts 18°
2026-04-29 23:50 43.61841 -6.35901 4578 ft 271 kts 49°
2026-04-29 23:51 43.62722 -6.33693 4389 ft 260 kts 77°
2026-04-29 23:51 43.62837 -6.31307 4268 ft 241 kts 99°
2026-04-29 23:51 43.62451 -6.29168 4105 ft 221 kts 108°
2026-04-29 23:51 43.61982 -6.27191 3752 ft 211 kts 109°
2026-04-29 23:52 43.61530 -6.25310 3412 ft 202 kts 109°
2026-04-29 23:52 43.61105 -6.23511 3064 ft 193 kts 108°
2026-04-29 23:52 43.60709 -6.21812 2898 ft 180 kts 108°
2026-04-29 23:52 43.60332 -6.20211 2741 ft 169 kts 108°
2026-04-29 23:53 43.59973 -6.18697 2515 ft 163 kts 108°
2026-04-29 23:53 43.59625 -6.17235 2316 ft 158 kts 108°
2026-04-29 23:53 43.59293 -6.15840 2111 ft 152 kts 108°
2026-04-29 23:53 43.58965 -6.14459 1930 ft 150 kts 108°
2026-04-29 23:54 43.58648 -6.13125 1718 ft 144 kts 108°
2026-04-29 23:54 43.58336 -6.11816 1557 ft 144 kts 108°
2026-04-29 23:54 43.58036 -6.10550 1335 ft 133 kts 107°
2026-04-29 23:54 43.57752 -6.09355 1174 ft 132 kts 108°
2026-04-29 23:55 43.57557 -6.08532 1056 ft 135 kts 107°
2026-04-29 23:55 43.57177 -6.06913 808 ft 132 kts 108°
2026-04-29 23:55 43.56986 -6.06115 672 ft 133 kts 109°
2026-04-29 23:55 43.56700 -6.04911 483 ft 132 kts 107°
2026-04-29 23:56 43.56425 -6.03754 411 ft 113 kts 107°
2026-04-29 23:56 43.56250 -6.03005 424 ft 51 kts 108°
2026-04-29 23:56 43.56195 -6.02782 423 ft 22 kts 108°
2026-04-29 23:56 43.56145 -6.02567 422 ft 23 kts 108°
2026-04-29 23:57 43.56097 -6.02358 416 ft 23 kts 108°
2026-04-29 23:57 43.56064 -6.02230 415 ft 12 kts 120°
2026-04-29 23:57 43.55996 -6.02235 420 ft 12 kts 228°
2026-04-29 23:57 43.55957 -6.02341 417 ft 13 kts 244°
2026-04-29 23:58 43.55957 -6.02466 423 ft 14 kts 292°
2026-04-29 23:58 43.55985 -6.02586 416 ft 13 kts 286°
2026-04-29 23:58 43.56013 -6.02709 423 ft 14 kts 288°
2026-04-29 23:58 43.56042 -6.02835 419 ft 13 kts 288°
2026-04-29 23:59 43.56020 -6.02907 424 ft 9 kts 199°
2026-04-29 23:59 43.55961 -6.02932 419 ft 8 kts 198°
2026-04-29 23:59 43.55953 -6.02936 423 ft 1 kts 204°
2026-04-29 23:59 43.55939 -6.02960 421 ft 0 kts 248°
2026-04-30 00:00 43.55938 -6.02963 425 ft 0 kts 250°
2026-04-30 00:00 43.55941 -6.02956 422 ft 2 kts 216°
2026-04-30 00:00 43.55940 -6.02963 425 ft 0 kts 239°